Overview Statistics Trail Chart Weather Telemetry Raw packets
 

This is the latest recevied weather packets stored in our database for station/object F8KHU-13. If no packets are shown the sender has not sent any weather packets the latest 10 day(s).

<< 1 2 3 4 >>
Time Temp. Humidity Pressure Rain* Wind** Luminosity Snow
1788699375 33.33° C 19% 1023.2 hPa 0 mm - 0 W/m² -
1788699374 33.33° C 19% 1023.1 hPa 0 mm - 0 W/m² -
1788699325 33.33° C 19% 1023.2 hPa 0 mm - 0 W/m² -
1788698466 33.33° C 20% 1023.2 hPa 0 mm - 0 W/m² -
1788698426 33.33° C 20% 1023.1 hPa 0 mm - 0 W/m² -
1788697561 32.22° C 21% 1023.4 hPa 0 mm - 0 W/m² -
1788697541 32.22° C 20% 1023.4 hPa 0 mm - 0 W/m² -
1788696661 31.67° C 21% 1023.7 hPa 0 mm - 0 W/m² -
1788696641 31.67° C 21% 1023.8 hPa 0 mm - 0 W/m² -
1788696621 31.67° C 22% 1023.7 hPa 0 mm - 0 W/m² -
1788695761 30° C 23% 1023.9 hPa 0 mm - 0 W/m² -
1788695741 30° C 23% 1023.9 hPa 0 mm - 0 W/m² -
1788694861 30° C 23% 1023.9 hPa 0 mm - 0 W/m² -
1788694841 30° C 23% 1023.8 hPa 0 mm - 0 W/m² -
1788694821 30° C 22% 1023.8 hPa 0 mm - 0 W/m² -
1788693962 28.89° C 23% 1023.7 hPa 0 mm - 0 W/m² -
1788693942 28.89° C 22% 1023.8 hPa 0 mm - 0 W/m² -
1788693922 28.89° C 23% 1023.8 hPa 0 mm - 0 W/m² -
1788693062 25° C 24% 1023.9 hPa 0 mm - 0 W/m² -
1788693022 25° C 25% 1023.9 hPa 0 mm - 0 W/m² -
1788692162 22.78° C 26% 1024.1 hPa 0 mm - 0 W/m² -
1788692142 22.78° C 26% 1024.1 hPa 0 mm - 0 W/m² -
1788692122 22.78° C 26% 1024.1 hPa 0 mm - 0 W/m² -
1788691242 20.56° C 27% 1024.1 hPa 0 mm - 0 W/m² -
1788691222 20.56° C 27% 1024.1 hPa 0 mm - 0 W/m² -

* Rain latest hour (hover to see other rain measurements)
** Current wind speed in m/s (hover to see current wind gust speed)